Vienna, OH

10:08 PM EST on December 09, 2016 (GMT -0500)
Youngstown-Warren Regional

Weather History for KYNG - October, 2013

Change the Weather History Date:

Wednesday, October 23, 2013

  Actual Average Record
Temperature  
Mean Temperature 39 °F 49 °F  
Max Temperature 45 °F 58 °F 78 °F (1931)
Min Temperature 33 °F 40 °F 23 °F (1969)
Degree Days  
Heating Degree Days 26 16  
Month to date heating degree days 206 300  
Since 1 July heating degree days 395 483  
Cooling Degree Days 0 0  
Month to date cooling degree days 21 3  
Year to date cooling degree days 630 541  
Moisture  
Dew Point 33 °F    
Average Humidity 75    
Maximum Humidity 92    
Minimum Humidity 57    
Precipitation  
Precipitation 0.15 in 0.08 in 2.05 in (2007)
Month to date precipitation 2.54 2.07  
Year to date precipitation 31.97 32.04  
Snow  
Snow T in 0.00 in - ()
Month to date snowfall T 0.4  
Since 1 July snowfall T 0.4  
Since 1 September snowfall T 0.4  
Snow Depth 0.00 in    
Sea Level Pressure  
Sea Level Pressure 29.84 in    
Wind  
Wind Speed 6 mph (West)    
Max Wind Speed 17 mph    
Max Gust Speed 23 mph    
Visibility 9 miles    
Events Rain , Snow    
T = Trace of Precipitation, MM = Missing Value Source: NWS Daily Summary

Daily Weather History Graph

Daily Weather History Graph

Search for Another Location

Airport or City:

Trip Planner

Search our weather history database for the weather conditions in past years. The results will help you decide how hot, cold, wet, or windy it might be!

Date:

Astronomy

Oct. 23, 2013 Rise Set
Actual Time 7:43 AM EDT 6:29 PM EDT
Civil Twilight 7:15 AM EDT 6:57 PM EDT
Nautical Twilight 6:43 AM EDT 7:29 PM EDT
Astronomical Twilight 6:11 AM EDT 8:01 PM EDT
Moon 9:57 PM EDT (10/23) 12:01 PM EDT (10/23)
Length of Visible Light 11h 42m
Length of Day
10h 45m
Waning Gibbous, 79% of the Moon is Illuminated
Oct 23
Waning Gibbous
Oct 26
Last Quarter
Nov 3
New
Nov 10
First Quarter
Nov 17
Full

Hourly Weather History & Observations

Time (EDT) Temp. Windchill Dew Point Humidity Pressure Visibility Wind Dir Wind Speed Gust Speed Precip Events Conditions
12:51 AM 42.1 °F 37.7 °F 28.9 °F 60% 29.86 in 10.0 mi SW 6.9 mph - N/A   Overcast
1:51 AM 41.0 °F 39.0 °F 28.9 °F 62% 29.86 in 10.0 mi West 3.5 mph - N/A   Overcast
2:51 AM 37.9 °F 35.5 °F 30.0 °F 73% 29.84 in 10.0 mi SSW 3.5 mph - N/A   Overcast
3:51 AM 37.0 °F - 30.0 °F 76% 29.82 in 10.0 mi Calm Calm - N/A   Overcast
4:51 AM 35.1 °F - 30.0 °F 82% 29.80 in 10.0 mi Calm Calm - N/A   Overcast
5:51 AM 35.1 °F - 30.0 °F 82% 29.79 in 10.0 mi Calm Calm - N/A   Overcast
6:51 AM 34.0 °F - 30.0 °F 85% 29.79 in 10.0 mi Calm Calm - N/A   Overcast
7:51 AM 34.0 °F 29.8 °F 30.9 °F 89% 29.79 in 10.0 mi West 4.6 mph - N/A   Mostly Cloudy
8:51 AM 37.0 °F 34.5 °F 33.1 °F 86% 29.80 in 10.0 mi West 3.5 mph - N/A   Overcast
9:51 AM 39.0 °F 34.0 °F 34.0 °F 82% 29.80 in 7.0 mi West 6.9 mph - 0.00 in Rain Light Rain
10:10 AM 37.4 °F 32.1 °F 33.8 °F 87% 29.78 in 5.0 mi West 6.9 mph - 0.00 in Rain Light Rain
10:40 AM 37.4 °F 31.4 °F 33.8 °F 87% 29.78 in 5.0 mi West 8.1 mph - 0.00 in Rain Light Rain
10:51 AM 37.9 °F 31.5 °F 35.1 °F 89% 29.81 in 5.0 mi West 9.2 mph - 0.01 in Rain Light Rain
11:51 AM 39.0 °F 34.0 °F 36.0 °F 89% 29.81 in 3.0 mi WNW 6.9 mph - 0.03 in Rain Light Rain
12:51 PM 41.0 °F 35.2 °F 37.9 °F 89% 29.80 in 7.0 mi West 9.2 mph - 0.02 in Rain Light Rain
1:51 PM 42.1 °F 37.7 °F 37.9 °F 85% 29.78 in 10.0 mi WNW 6.9 mph - 0.04 in Rain Light Rain
2:38 PM 39.2 °F 32.0 °F 35.6 °F 87% 29.77 in 10.0 mi WNW 11.5 mph - 0.00 in Rain Light Rain
2:51 PM 39.9 °F 34.5 °F 36.0 °F 86% 29.80 in 10.0 mi WNW 8.1 mph - 0.00 in Rain Light Rain
3:51 PM 43.0 °F 41.3 °F 37.9 °F 82% 29.81 in 10.0 mi NW 3.5 mph - 0.00 in   Overcast
4:51 PM 43.0 °F 37.7 °F 33.1 °F 68% 29.83 in 10.0 mi WNW 9.2 mph - N/A   Mostly Cloudy
5:51 PM 42.1 °F 36.1 °F 30.0 °F 62% 29.85 in 10.0 mi WNW 10.4 mph 18.4 mph N/A   Mostly Cloudy
6:51 PM 37.9 °F 32.1 °F 30.0 °F 73% 29.88 in 10.0 mi West 8.1 mph - N/A   Scattered Clouds
7:51 PM 37.9 °F 32.1 °F 32.0 °F 79% 29.91 in 10.0 mi West 8.1 mph - N/A   Overcast
8:51 PM 37.0 °F 31.6 °F 32.0 °F 82% 29.91 in 10.0 mi West 6.9 mph - 0.00 in   Mostly Cloudy
9:51 PM 36.0 °F 33.3 °F 33.1 °F 89% 29.92 in 10.0 mi West 3.5 mph - N/A   Mostly Cloudy
10:17 PM 35.6 °F 28.0 °F 32.0 °F 87% 29.91 in 4.0 mi WNW 10.4 mph - 0.01 in Rain , Snow Light Rain
10:39 PM 33.8 °F 29.6 °F 32.0 °F 93% 29.91 in 10.0 mi WNW 4.6 mph - 0.04 in Rain , Snow Light Rain
10:51 PM 34.0 °F 29.8 °F 33.1 °F 96% 29.94 in 10.0 mi WNW 4.6 mph - 0.04 in Snow Light Snow
11:23 PM 35.6 °F 29.9 °F 33.8 °F 93% 29.91 in 10.0 mi West 6.9 mph - 0.00 in Snow Light Snow
11:51 PM 35.1 °F 26.4 °F 33.1 °F 92% 29.93 in 10.0 mi West 12.7 mph - 0.01 in Rain , Snow Light Rain